CZ-6A DEB, 54898

Orbit data source: Space-Track

CZ-6A DEB, 54898 is space debris in SSO originally from a launch on Fri, 11 Nov 2022 UTC launched from the Taiyaun Space Center, China (TSC). Debris objects in space refer to the collection of defunct objects orbiting the Earth. Examples of debris include non-operational satellites, rocket bodies, and fragments generated from explosions, collisions, or faulty payload assembly.

Loading next visibility...
Identifier
54898, 2022-151QK
Orbit
SSO
Country
Flag of CNCN / PRC
Related business
Manufacturer
SAST
Mission
Spacecraft
Bus & Motor
Unknown
Mass
Unknown
Launch date (UTC)
2022-11-11 (4 years ago)
Launch vehicle
Unknown
Launch site
Taiyaun Space Center, China (TSC)
Object type
Payload
Rocket body
Debris
Shape & HBR
Unknown shape, 0.1 m
Radar Cross Section
Small (<0.1 m²)

Expand to show TLE details & history
Last TLE update: 3 days ago

TLE from 3 days ago
0 CZ-6A DEB
1 54898U 22151QK  26170.39223828  .00000606  00000-0  37978-3 0  9997
2 54898  98.8503 159.0019 0081159  23.2848 337.1965 14.06642850181959
Epoch: 2026-06-19T09:24Z
TLE epoch observation values (Epoch: 2026-06-19T09:24:49.387Z)
Latitude
0.00005°
Longitude
110.17424°
Altitude
819.602 km
Speed
7.471 km/s
True Right ascension
10h 36m 00s
True Declination
0° 00' 00"
Sunlit
Object was in daylight at epoch
Visualization orbit readout
Latitude
Unknown
Longitude
Unknown
Altitude
Unknown
Speed
Unknown
Apparent Right ascension
Unknown
Apparent Declination
Unknown
Sunlit
N/A
Visualization observer readout
Local Sidereal Time
21:23:24
Azimuth
Unknown
Elevation
Unknown
Doppler factor
Unknown
Orbital elements
Apogee altitude
926.875 km
Perigee altitude
809.256 km
Semi-major axis
7,246.203 km
Eccentricity
0.00812
Inclination
98.8503°
RAAN
159.0019°
Arg. of periapsis
23.2848°
True anomaly
336.83265°
Mean anomaly
337.1965°
Eccentric anomaly
337.01492°
Mean motion
3.51866 °/min
Orbital period
102.31 mins
BSTAR
0.00037978
Loading maneuver chart data...
Computing Atmospheric mass density...
Loading historical data...
Loading historical data...
Loading historical data...
Loading historical data...
Loading historical data...
Loading historical data...
Loading historical data...

Documentation

Showing up to 5 results
|